Location: Carimao
(10.4546°N, 66.7419°W)
Time: 01:13:39
(UTC+00:00)

Daily predictions for brighter satellites

Satellite Brightness Start Highest point End
(mag) Time Altitude Azimuth Time Altitude Azimuth Time Altitude Azimuth
DELTA 2 R/B (1) 4.2 00:02:58 10° SW 00:07:01 49° SSW 00:07:01 49° SSW
Delta 7925 Rocket 4.4 00:04:04 10° SW 00:10:14 61° SSE 00:10:14 61° SSE
Cosmos 1943 Rocket 4.5 00:12:17 10° WSW 00:16:14 20° WNW 00:20:13 10° NNW
CZ-4C R/B 3.7 07:28:12 60° E 07:28:12 60° E 07:36:23 10° SE
SL-16 R/B 4.4 07:32:53 10° SE 07:37:44 24° ENE 07:40:03 20° NE
Cosmos 1844 Rocket 4.0 07:52:13 37° ESE 07:52:13 37° ESE 07:55:59 10° SSE
ARIANE 5 R/B 4.1 07:59:46 30° SSE 07:59:46 30° SSE 08:08:14 10° ESE
Cosmos 1605 Rocket 4.3 08:10:18 39° NNE 08:12:28 61° E 08:18:33 10° SSE
Cosmos 1727 Rocket 3.9 08:13:33 10° S 08:19:42 81° E 08:25:52 10° N
CZ-3 Stage 3 3.9 08:16:52 43° SW 08:20:55 88° SSE 08:56:26 10° ENE
ARIANE 5 R/B 2.5 08:24:34 46° SSE 08:24:34 46° SSE 08:27:28 10° ESE
ASTEX 1 3.8 08:25:34 10° SSE 08:30:25 60° E 08:33:10 25° N
Centaur AC-119 4.1 08:31:37 30° SSW 08:31:37 30° SSW 08:34:45 10° SSE
Cosmos 2237 Rocket 2.6 08:29:12 10° S 08:34:47 61° ESE 08:40:22 10° NNE
OAO 3 Rocket 3.8 08:38:27 42° SSW 08:38:27 42° SSW 08:42:20 10° SE
DASH 4.4 08:37:32 30° NW 08:40:51 42° N 08:44:33 10° E
Cosmos 1939 Rocket 3.3 08:43:02 48° S 08:43:02 48° S 08:45:51 10° S
CZ-3 R/B 3.4 08:32:31 31° W 08:43:07 54° NNW 08:51:02 10° NE
Meteor 1-24 Rocket 4.1 08:39:30 10° S 08:45:26 68° E 08:51:11 10° NNE
Cosmos 1844 4.0 08:51:30 41° WSW 08:51:30 41° WSW 08:56:35 10° S
Aurora 2 Rocket 2.5 08:52:57 44° SSE 08:52:57 44° SSE 08:55:26 10° SE
CZ-3C R/B 1.3 08:53:47 34° SE 08:53:47 34° SE 08:56:04 10° E
Cosmos 614 Rocket 4.1 08:53:42 47° W 08:53:51 47° WSW 08:58:40 10° S
Cosmos 1000 Rocket 4.4 08:48:16 10° SSW 08:54:25 64° W 09:00:39 10° N
EPKM 4.1 08:57:01 17° SE 08:57:01 17° SE 08:57:39 10° SE
Meteor 2-5 Rocket 3.9 08:51:10 10° S 08:57:06 81° E 09:03:01 10° N
Meteor 1-28 Rocket 4.0 08:54:02 10° S 08:56:01 32° SSW 08:56:01 32° SSW
Cosmos 2123 Rocket 3.9 08:54:46 10° S 09:01:03 89° W 09:07:16 10° N
FALCON 9 R/B 2.9 08:56:29 23° NW 09:04:44 88° SW 09:09:18 10° SE
CZ-4 R/B 4.0 09:00:27 10° NNE 09:05:13 72° ESE 09:09:52 10° S
SJ-11-01 4.2 09:06:25 10° N 09:11:03 67° WNW 09:15:41 10° SSW
Cosmos 1153 Rocket 4.4 09:05:14 10° N 09:11:25 70° W 09:17:41 10° S
ISS -2.8 09:12:35 21° NNW 09:14:32 45° NE 09:17:46 10° SE
CZ-4C R/B 4.3 09:13:16 21° W 09:15:36 23° WSW 09:22:19 10° SSW
Meteor 2-21 Rocket 4.4 09:11:11 10° SSW 09:17:17 62° W 09:23:19 10° N
NOAA 12 4.1 09:13:16 10° NNE 09:18:35 88° ESE 09:23:53 10° SSW
SL-16 R/B 3.3 09:15:41 10° SSW 09:20:58 30° WSW 09:25:07 15° NW
Aureole 1 4.4 09:20:34 10° SSW 09:23:24 40° WNW 09:26:21 10° N
Cosmos 1733 Rocket 3.8 09:27:11 13° NW 09:30:26 30° W 09:34:14 10° SSW
Cosmos 1340 Rocket 2.6 09:27:04 10° NNW 09:30:43 58° W 09:34:21 10° S
Centaur AC-112 3.6 09:29:23 17° W 09:32:25 64° NNW 09:47:48 10° ENE
SL-16 R/B 3.3 09:27:44 10° S 09:33:10 48° ESE 09:38:34 10° NNE
Cosmos 1844 Rocket 4.5 09:33:56 12° WSW 09:34:01 12° WSW 09:35:56 10° WSW
Cosmos 2056 Rocket 3.9 09:29:32 10° S 09:34:51 72° ESE 09:40:12 10° NNE
Cosmos 2084 Rocket 3.6 09:33:41 12° NW 09:37:22 47° WSW 09:41:22 10° S
Iridium 4 Rocket 3.4 09:36:25 10° N 09:40:30 67° E 09:44:39 10° S
GPS 2-15 Rocket1 3.6 09:37:01 14° W 09:40:49 49° SSW 09:45:26 10° SE
ATLAS 2A CENTAUR R/B 3.7 09:44:23 10° NW 09:47:06 34° NE 09:53:09 10° E
Cosmos 1606 2.7 09:45:20 10° NNW 09:47:41 27° W 09:50:01 10° SSW
IRS-1D 4.4 09:47:29 10° NNW 09:51:29 26° WNW 09:55:31 10° SW
Cosmos 1371 Rocket 4.0 09:48:12 10° SSW 09:53:22 72° WNW 09:58:36 10° N
Cosmos 1484 Rocket 2.4 09:50:57 10° N 09:54:28 82° W 09:57:57 10° SSW
GPS 2-17 Rocket1 4.5 09:53:34 10° NW 09:56:50 22° N 10:00:06 10° NE
Cosmos 2100 Rocket 4.3 09:51:34 10° NNW 09:57:20 43° W 10:03:09 10° SSW
